Flag for Germany Weather past 2 weeks in Leer, Lower Saxony, Germany

Now
58 °F

Passing clouds.


Feels Like: 58 °F
Forecast: 49 / 72 °F
Wind: 2 mph from Northeast

Location: Emden-Koenigspolder

Current Time: Aug 27, 2014 at 9:17:24 PM

Latest Report: Aug 27, 2014 at 9:00 PM


Visibility: 10 mi

Pressure: 30.02 "Hg

Humidity: 87%

Dew point: 54 °F

Location of LeerLocation

Historic Weather in Leer — Graph

°F

Leer temperature yesterday

Maximum temperature yesterday: 65 °F (at 3:00 PM)
Minimum temperature yesterday: 43 °F (at 5:00 AM)
Average temperature yesterday: 53 °F

Past Weeks' High & Low Weather Summary

 TemperatureHumidityPressure
High68 °F (Aug 13, 1:00 PM)99% (Aug 27, 7:00 AM)30.02 "Hg (Aug 27, 7:00 AM)
Low43 °F (Aug 26, 5:00 AM)50% (Aug 26, 2:00 PM)29.44 "Hg (Aug 18, 10:00 AM)
Average57 °F82%29.81 "Hg
* Reported Aug 12 8:00 PM — Aug 27 8:00 PM, Leer, Weather by CustomWeather, © 2014

Note: Actual official high and low records may vary slightly from our data, if they occured in-between our weather recording intervals... More about our weather records

Advertising

Leer weather history for previous 24 hours

 ConditionsComfort  
Time TempWeatherWind HumidityBarometerVisibility
8:00 PM
Aug 27
62 °FSunny.2 mph77%30.01 "Hg22 mi
7:00 PM66 °FSunny.3 mph68%30.01 "Hg31 mi
6:00 PM67 °FPassing clouds.3 mph60%30.01 "Hg34 mi
5:00 PM68 °FPassing clouds.3 mph58%30.01 "Hg28 mi
4:00 PM67 °FPassing clouds.5 mph59%30.02 "Hg19 mi
3:00 PM68 °FScattered clouds.3 mph64%30.02 "Hg28 mi
2:00 PM66 °FScattered clouds.5 mph66%30.02 "Hg34 mi
1:00 PM68 °FPassing clouds.3 mph68%30.01 "Hg22 mi
12:00 PM67 °FPartly sunny.2 mph65%30.01 "Hg22 mi
11:00 AM65 °FScattered clouds.2 mph69%30.00 "Hg25 mi
10:00 AM63 °FPassing clouds.2 mph81%29.99 "Hg22 mi
9:00 AM58 °FSunny.2 mph95%29.97 "Hg22 mi
8:00 AM53 °FSunny.2 mph99%29.96 "Hg8 mi
7:00 AM52 °FFog.2 mph99%29.94 "Hg1 mi
6:00 AM51 °FFog.1 mph98%29.93 "Hg4 mi
5:00 AM51 °FClear.2 mph98%29.92 "Hg6 mi
4:00 AM51 °FClear.2 mph98%29.91 "Hg7 mi
3:00 AM49 °FClear.2 mph97%29.90 "Hg7 mi
2:00 AM48 °FClear.2 mph97%29.89 "Hg6 mi
1:00 AM50 °FClear.1 mph96%29.88 "Hg11 mi
12:00 AM51 °FClear.1 mph95%29.87 "Hg13 mi
10:00 PM
Aug 26
52 °FClear.1 mph90%29.85 "Hg19 mi
9:00 PM54 °FClear.2 mph82%29.83 "Hg12 mi
Weather by CustomWeather, © 2014

See weather overviewHow to use our weather pages